TimeCST,TemperatureF,Dew PointF,Humidity,Sea Level PressureIn,VisibilityMPH,Wind Direction,Wind SpeedMPH,Gust SpeedMPH,PrecipitationIn,Events,Conditions,WindDirDegrees,DateUTC
12:15 AM,-0.4,-4.0,85,30.12,10.0,North,9.2,-,N/A,,Clear,350,2013-12-20 06:15:00
12:35 AM,-0.4,-4.0,85,30.11,10.0,NNW,9.2,-,N/A,,Clear,340,2013-12-20 06:35:00
12:55 AM,-2.2,-4.0,92,30.11,10.0,NNW,9.2,-,N/A,,Partly Cloudy,340,2013-12-20 06:55:00
1:15 AM,-2.2,-4.0,92,30.10,10.0,NNW,8.1,-,N/A,,Scattered Clouds,340,2013-12-20 07:15:00
1:35 AM,-0.4,-4.0,85,30.10,10.0,NNW,9.2,-,N/A,,Partly Cloudy,340,2013-12-20 07:35:00
1:55 AM,-2.2,-5.8,85,30.10,10.0,NNW,9.2,-,N/A,,Clear,340,2013-12-20 07:55:00
2:15 AM,-2.2,-5.8,85,30.10,10.0,NNW,10.4,-,N/A,,Clear,340,2013-12-20 08:15:00
2:35 AM,-2.2,-7.6,78,30.10,10.0,NNW,9.2,-,N/A,,Clear,340,2013-12-20 08:35:00
2:55 AM,-4.0,-7.6,85,30.10,10.0,NNW,6.9,-,N/A,,Clear,340,2013-12-20 08:55:00
3:15 AM,-4.0,-7.6,85,30.10,10.0,NNW,8.1,-,N/A,,Clear,340,2013-12-20 09:15:00
3:35 AM,-4.0,-9.4,78,30.09,10.0,NNW,8.1,-,N/A,,Clear,340,2013-12-20 09:35:00
3:55 AM,-4.0,-9.4,78,30.09,10.0,NNW,5.8,-,N/A,,Clear,340,2013-12-20 09:55:00
4:15 AM,-7.6,-11.2,84,30.08,10.0,NW,8.1,-,N/A,,Clear,320,2013-12-20 10:15:00
4:35 AM,-7.6,-11.2,84,30.09,10.0,NW,4.6,-,N/A,,Clear,310,2013-12-20 10:35:00
4:55 AM,-7.6,-11.2,84,30.09,10.0,WNW,6.9,-,N/A,,Partly Cloudy,300,2013-12-20 10:55:00
5:15 AM,-7.6,-11.2,84,30.08,10.0,WNW,5.8,-,N/A,,Partly Cloudy,300,2013-12-20 11:15:00
5:35 AM,-9.4,-13.0,84,30.07,10.0,WNW,4.6,-,N/A,,Partly Cloudy,300,2013-12-20 11:35:00
5:55 AM,-9.4,-13.0,84,30.06,10.0,West,3.5,-,N/A,,Partly Cloudy,280,2013-12-20 11:55:00
6:15 AM,-9.4,-13.0,84,30.05,10.0,Calm,Calm,-,N/A,,Mostly Cloudy,0,2013-12-20 12:15:00
6:35 AM,-7.6,-11.2,84,30.04,10.0,WNW,3.5,-,N/A,,Overcast,290,2013-12-20 12:35:00
6:55 AM,-11.2,-14.8,84,30.03,10.0,Calm,Calm,-,N/A,,Overcast,0,2013-12-20 12:55:00
7:15 AM,-9.4,-13.0,84,30.03,10.0,West,3.5,-,N/A,,Overcast,260,2013-12-20 13:15:00
7:35 AM,-11.2,-14.8,84,30.03,10.0,SSW,3.5,-,N/A,,Mostly Cloudy,200,2013-12-20 13:35:00
7:55 AM,-9.4,-14.8,77,30.02,-9999.0,SSW,4.6,-,N/A,,Mostly Cloudy,200,2013-12-20 13:55:00
8:15 AM,-11.2,-16.6,77,30.03,-9999.0,SSW,3.5,-,N/A,,Mostly Cloudy,200,2013-12-20 14:15:00
8:35 AM,-11.2,-16.6,77,30.02,-9999.0,South,6.9,-,N/A,,Mostly Cloudy,180,2013-12-20 14:35:00
8:55 AM,-11.2,-16.6,77,30.02,-9999.0,South,6.9,-,N/A,,Mostly Cloudy,170,2013-12-20 14:55:00
9:15 AM,-9.4,-13.0,84,30.02,-9999.0,SW,3.5,-,N/A,,Overcast,220,2013-12-20 15:15:00
9:35 AM,-4.0,-9.4,78,30.01,10.0,Calm,Calm,-,N/A,,Mostly Cloudy,0,2013-12-20 15:35:00
9:55 AM,-4.0,-9.4,78,30.01,10.0,South,5.8,-,N/A,,Overcast,180,2013-12-20 15:55:00
10:15 AM,-4.0,-7.6,85,30.01,10.0,SSE,5.8,-,N/A,,Overcast,160,2013-12-20 16:15:00
10:35 AM,-4.0,-7.6,85,30.01,10.0,SSE,3.5,-,N/A,,Mostly Cloudy,160,2013-12-20 16:35:00
10:55 AM,-0.4,-4.0,85,30.00,10.0,SSE,5.8,-,N/A,,Mostly Cloudy,160,2013-12-20 16:55:00
11:15 AM,-0.4,-2.2,92,29.98,10.0,SSE,8.1,-,N/A,,Overcast,150,2013-12-20 17:15:00
11:35 AM,-0.4,-2.2,92,29.98,10.0,South,6.9,-,N/A,,Mostly Cloudy,170,2013-12-20 17:35:00
11:55 AM,3.2,-0.4,85,29.97,10.0,SSW,8.1,-,N/A,,Scattered Clouds,200,2013-12-20 17:55:00
12:15 PM,5.0,1.4,85,29.95,10.0,SSW,11.5,-,N/A,,Partly Cloudy,200,2013-12-20 18:15:00
12:35 PM,5.0,1.4,85,29.94,10.0,SSW,10.4,-,N/A,,Clear,200,2013-12-20 18:35:00
12:55 PM,5.0,1.4,85,29.92,10.0,SSW,10.4,-,N/A,,Clear,200,2013-12-20 18:55:00
1:15 PM,6.8,3.2,85,29.92,10.0,SSW,11.5,-,N/A,,Clear,210,2013-12-20 19:15:00
1:35 PM,6.8,1.4,79,29.90,10.0,SSW,10.4,-,N/A,,Clear,200,2013-12-20 19:35:00
1:55 PM,6.8,1.4,79,29.89,10.0,South,8.1,-,N/A,,Clear,190,2013-12-20 19:55:00
2:15 PM,6.8,1.4,79,29.88,10.0,South,10.4,-,N/A,,Clear,180,2013-12-20 20:15:00
2:35 PM,6.8,1.4,79,29.87,10.0,SSW,10.4,-,N/A,,Clear,200,2013-12-20 20:35:00
2:55 PM,6.8,1.4,79,29.86,10.0,South,8.1,-,N/A,,Clear,190,2013-12-20 20:55:00
3:15 PM,6.8,3.2,85,29.86,10.0,South,8.1,-,N/A,,Clear,190,2013-12-20 21:15:00
3:35 PM,6.8,3.2,85,29.85,10.0,SSW,6.9,-,N/A,,Clear,200,2013-12-20 21:35:00
3:55 PM,6.8,3.2,85,29.86,10.0,SSW,9.2,-,N/A,,Clear,210,2013-12-20 21:55:00
4:15 PM,6.8,1.4,79,29.86,10.0,SSW,5.8,-,N/A,,Mostly Cloudy,210,2013-12-20 22:15:00
4:35 PM,5.0,1.4,85,29.85,10.0,SSW,4.6,-,N/A,,Mostly Cloudy,200,2013-12-20 22:35:00
4:55 PM,5.0,1.4,85,29.85,10.0,South,5.8,-,N/A,,Clear,190,2013-12-20 22:55:00
5:15 PM,3.2,-0.4,85,29.84,10.0,South,8.1,-,N/A,,Clear,180,2013-12-20 23:15:00
5:35 PM,1.4,-0.4,92,29.84,10.0,SSE,8.1,-,N/A,,Clear,160,2013-12-20 23:35:00
5:55 PM,-0.4,-2.2,92,29.83,-9999.0,SSE,6.9,-,N/A,,Unknown,160,2013-12-20 23:55:00
6:15 PM,-0.4,-0.4,100,29.82,-9999.0,SSE,9.2,-,N/A,,Unknown,160,2013-12-21 00:15:00
6:35 PM,3.2,-0.4,85,29.81,10.0,South,9.2,-,N/A,,Clear,170,2013-12-21 00:35:00
6:55 PM,3.2,-0.4,85,29.81,10.0,South,13.8,-,N/A,,Clear,170,2013-12-21 00:55:00
7:15 PM,1.4,-0.4,92,29.81,10.0,South,13.8,-,N/A,,Clear,170,2013-12-21 01:15:00
7:35 PM,1.4,-0.4,92,29.80,10.0,South,13.8,-,N/A,,Clear,190,2013-12-21 01:35:00
7:55 PM,1.4,-0.4,92,29.80,10.0,South,15.0,-,N/A,,Clear,180,2013-12-21 01:55:00
8:15 PM,1.4,-0.4,92,29.81,10.0,South,9.2,-,N/A,,Clear,190,2013-12-21 02:15:00
8:35 PM,1.4,-0.4,92,29.79,10.0,South,11.5,-,N/A,,Clear,170,2013-12-21 02:35:00
8:55 PM,1.4,-0.4,92,29.80,10.0,South,11.5,-,N/A,,Clear,180,2013-12-21 02:55:00
9:15 PM,1.4,-0.4,92,29.79,10.0,South,8.1,-,N/A,,Clear,180,2013-12-21 03:15:00
9:35 PM,1.4,-0.4,92,29.79,10.0,South,10.4,-,N/A,,Clear,190,2013-12-21 03:35:00
9:55 PM,1.4,-0.4,92,29.80,10.0,SSW,8.1,-,N/A,,Clear,210,2013-12-21 03:55:00
10:15 PM,-0.4,-2.2,92,29.80,10.0,South,8.1,-,N/A,,Mostly Cloudy,190,2013-12-21 04:15:00
10:35 PM,1.4,-2.2,85,29.80,10.0,South,10.4,-,N/A,,Mostly Cloudy,180,2013-12-21 04:35:00
10:55 PM,-0.4,-2.2,92,29.80,10.0,South,10.4,-,N/A,,Partly Cloudy,180,2013-12-21 04:55:00
11:15 PM,-0.4,-2.2,92,29.80,10.0,South,11.5,-,N/A,,Clear,190,2013-12-21 05:15:00
11:35 PM,-0.4,-2.2,92,29.80,10.0,South,10.4,-,N/A,,Clear,190,2013-12-21 05:35:00
11:55 PM,-0.4,-2.2,92,29.80,10.0,SSW,9.2,-,N/A,,Clear,200,2013-12-21 05:55:00